Wind_Speed
21 21 21 22 24 23 22 22 24 26 27 28 27 26 25 24 24 24 22 21 20 19 18 17 16 15 14 13 12 11 10 10 10 9 9 10 10 10 10 10 10 11 11 12 13 13 14 15 16
23 23 23 23 23 22 21 22 24 26 28 28 28 27 27 26 25 24 23 22 21 19 19 18 17 16 14 13 13 12 11 10 10 10 10 10 10 10 10 10 11 11 12 13 14 15 15 16 17
25 25 25 24 23 21 21 23 25 27 28 28 28 28 28 27 26 25 24 22 21 20 19 18 17 16 15 14 13 12 12 11 11 11 10 10 11 11 10 11 12 12 13 14 15 16 16 17 18
28 27 26 25 22 21 23 24 25 26 27 27 28 28 28 27 27 26 24 23 22 21 20 19 18 17 16 15 14 13 13 12 11 11 11 11 11 11 11 12 13 13 14 15 16 16 17 18 19
31 30 28 25 23 23 24 25 25 25 26 27 28 28 28 28 27 26 26 24 23 22 21 20 19 18 17 16 15 14 13 12 12 12 12 12 12 12 12 13 13 14 15 16 17 18 19 20 21
33 32 30 26 24 25 25 26 25 25 26 27 28 28 28 28 28 27 26 25 24 23 22 21 20 19 18 17 15 14 14 13 12 12 12 12 12 12 13 14 15 16 16 17 18 19 20 22 22
35 34 32 29 27 27 27 27 26 25 26 27 27 28 28 28 28 28 27 26 24 23 22 21 20 19 18 17 16 15 14 14 13 13 13 13 13 14 15 16 16 17 18 19 20 21 22 23 24
38 37 34 31 29 28 28 28 27 27 27 28 28 28 28 28 28 28 27 26 25 24 22 21 21 20 18 17 16 16 15 15 14 14 14 14 15 15 16 17 17 18 19 20 22 23 24 25 26
41 40 36 32 31 30 30 29 29 28 28 28 28 28 28 28 28 27 27 27 26 25 23 22 21 20 19 18 17 16 16 16 15 15 15 16 16 17 17 18 19 20 21 22 23 24 25 27 27
44 42 36 33 33 33 33 31 30 30 29 28 28 28 29 28 28 27 27 27 26 25 24 23 22 21 20 19 18 18 17 17 16 16 17 17 17 18 19 20 21 22 23 24 25 26 27 28 29
46 43 38 37 36 36 36 34 32 31 30 29 29 29 30 30 29 28 27 27 27 26 25 23 23 22 21 20 19 18 18 17 17 17 18 18 19 20 20 22 23 24 25 26 27 28 29 30 31
48 44 42 40 40 39 38 37 35 33 31 31 31 32 32 31 30 29 28 28 27 26 25 24 24 23 22 21 20 19 19 18 18 18 19 20 20 21 22 23 25 25 26 27 28 30 31 32 33
51 47 45 44 44 42 41 39 38 35 34 33 33 33 32 32 32 31 30 29 28 27 26 26 25 24 23 22 21 20 20 19 19 20 21 22 22 23 24 25 26 27 28 29 30 31 32 33 34
52 50 48 47 47 46 44 42 40 37 36 35 35 34 34 33 33 32 31 30 29 29 28 27 26 25 24 23 22 21 21 21 21 22 23 23 24 25 26 27 28 29 30 31 32 33 34 34 35
53 53 52 51 50 48 48 46 42 38 38 38 37 36 35 34 34 33 32 31 31 30 29 27 26 25 24 24 23 23 22 22 23 23 24 25 26 26 27 28 29 30 32 33 33 34 35 35 35
55 55 55 52 52 50 51 48 43 41 41 40 39 38 37 36 35 34 34 33 32 31 30 28 27 26 25 25 24 24 24 24 24 25 26 26 27 28 29 30 31 32 33 34 34 35 35 35 36
58 57 55 53 53 52 53 49 45 45 44 42 41 40 39 37 36 35 35 34 33 32 31 30 28 28 27 26 26 25 26 26 27 27 27 28 29 30 31 32 33 34 34 35 35 35 36 36 36
58 57 55 54 53 53 54 51 48 47 46 44 43 42 40 39 38 37 36 36 35 33 32 31 30 29 29 28 27 27 28 28 28 29 29 30 31 31 32 33 34 35 35 35 35 36 36 36 37
57 57 56 54 54 54 54 53 51 50 49 46 45 44 42 40 39 39 37 36 36 34 33 32 31 30 30 29 29 30 30 30 30 30 30 31 32 33 34 34 35 35 35 36 36 36 36 37 37
58 58 57 55 54 55 55 55 53 53 51 49 47 45 43 42 41 40 39 37 36 35 34 33 32 32 31 31 31 32 32 31 31 31 32 33 34 34 34 35 35 35 36 36 36 36 36 36 36
58 57 56 55 55 56 57 57 56 54 53 51 49 47 45 44 43 41 40 38 37 36 35 34 34 33 33 33 33 33 33 33 33 33 34 34 35 35 35 35 35 35 36 36 36 36 36 36 36
57 55 55 56 56 57 58 59 57 55 55 53 50 48 46 45 44 43 41 40 38 37 36 35 35 34 34 34 34 34 34 34 34 35 35 35 35 35 35 35 35 35 36 36 36 36 36 36 36
56 54 55 55 56 57 58 59 58 56 55 53 50 48 47 45 45 44 42 41 39 39 38 36 36 35 35 35 35 35 35 35 36 36 36 36 35 35 36 36 35 36 36 36 36 36 36 36 36
55 53 53 54 56 59 58 59 60 56 53 52 51 49 47 46 45 44 43 43 41 40 39 38 37 36 36 36 36 36 36 36 36 36 36 36 36 36 36 36 35 36 36 36 36 35 35 36 36
54 53 52 54 57 59 57 59 60 55 51 49 49 49 48 47 46 45 44 43 42 41 40 39 38 37 37 36 36 36 36 36 36 36 36 36 36 36 36 36 35 35 35 35 35 35 35 36 36
55 54 54 54 55 55 56 58 58 53 50 47 47 47 47 47 47 46 45 43 42 41 40 39 38 37 37 37 36 36 36 36 36 36 36 36 36 36 36 35 35 35 35 35 35 35 35 36 36
55 55 52 52 52 53 55 55 55 52 49 46 45 45 46 46 46 45 45 44 42 41 40 39 39 38 37 37 36 36 36 36 36 35 35 35 35 35 35 35 35 35 34 34 35 35 35 36 37
52 51 53 51 51 52 52 52 52 48 46 44 43 44 44 45 45 45 44 43 41 40 40 40 39 38 37 37 36 36 35 35 35 35 35 35 35 35 35 34 34 34 34 34 34 35 35 36 37
51 52 52 52 52 51 51 49 46 42 40 40 41 42 43 44 44 44 43 42 41 40 40 39 39 38 37 36 36 35 34 34 34 34 34 34 34 34 34 33 33 33 34 34 34 35 36 37 38
48 51 52 52 53 51 49 47 42 39 38 39 40 41 41 42 42 42 41 41 41 40 40 39 38 37 36 35 35 34 34 34 34 34 34 33 33 33 33 33 33 33 34 34 34 35 36 37 39
Wind_Direction
242 239 238 236 234 232 230 227 225 225 225 225 225 224 224 224 224 225 225 224 224 224 224 223 225 227 229 231 234 239 244 251 259 266 272 278 281 285 289 291 295 298 301 303 304 304 304 304 303
242 240 238 236 234 232 228 226 224 224 224 224 224 223 223 224 224 225 225 226 226 226 224 224 226 229 231 232 235 240 246 253 259 265 271 276 281 285 287 290 294 298 301 302 303 304 304 303 303
241 239 238 237 233 231 227 225 224 224 224 224 224 223 223 224 223 224 225 226 227 227 225 226 227 230 231 234 237 241 247 253 259 265 270 275 281 283 286 290 293 296 298 301 303 303 304 303 303
240 238 238 236 232 228 226 224 224 225 224 223 223 222 223 223 224 224 224 225 226 226 226 228 229 229 231 235 238 242 246 252 257 263 269 276 279 282 285 289 293 297 299 301 302 303 303 303 303
239 238 236 234 230 226 225 224 223 224 223 221 222 222 222 222 223 223 223 224 225 224 225 228 229 229 232 235 239 242 246 251 257 263 270 276 278 281 286 290 294 297 299 300 302 303 304 304 304
238 238 236 232 228 225 224 224 223 223 222 220 220 221 220 220 221 221 222 223 223 224 225 227 229 229 233 235 238 241 245 251 257 263 271 275 277 281 286 290 294 297 299 300 302 303 304 305 305
238 236 234 230 226 224 224 224 222 222 220 219 219 218 218 218 219 221 222 222 223 224 225 226 228 229 231 234 237 240 244 251 258 266 271 274 278 282 287 291 295 297 299 299 301 302 304 304 305
237 235 232 229 226 224 224 223 221 220 219 218 217 216 215 216 218 220 221 221 221 223 224 225 226 228 230 233 236 240 246 253 261 266 270 276 280 284 288 291 294 296 298 299 301 302 303 304 304
235 234 231 228 226 223 223 222 221 220 219 218 216 215 214 215 217 218 219 219 220 222 224 225 225 228 230 233 237 242 249 256 262 265 271 277 281 284 288 291 294 296 298 299 301 302 303 303 303
234 233 230 227 225 223 222 221 221 220 218 217 215 213 214 215 216 217 218 218 218 220 222 223 224 227 230 234 239 245 252 258 261 266 272 277 282 285 289 291 295 297 299 300 301 302 302 303 303
233 232 228 225 223 222 222 221 220 219 217 217 215 213 213 214 215 216 218 217 217 219 221 222 224 227 230 235 242 248 252 257 262 267 273 278 283 286 289 292 295 297 299 300 301 302 302 303 303
233 230 227 224 223 222 222 220 220 219 217 216 214 213 212 214 214 216 218 217 217 218 220 222 225 228 232 238 244 247 251 257 264 270 275 280 283 286 289 292 295 296 298 299 300 302 302 303 303
232 229 227 224 223 222 221 220 219 218 217 217 216 215 214 215 215 216 217 217 218 219 221 223 227 230 234 239 243 247 252 258 265 271 276 280 283 286 289 292 294 296 298 299 300 302 303 303 303
231 229 227 224 222 221 221 220 219 217 218 218 218 216 215 215 215 216 217 218 220 221 223 225 229 232 236 240 244 249 254 260 266 272 277 280 283 286 289 292 295 296 298 299 300 301 302 303 304
230 229 226 224 222 221 222 220 219 218 219 219 219 218 216 215 215 216 217 218 221 223 225 227 230 233 237 242 246 250 255 260 266 272 276 280 283 286 289 292 294 296 298 300 300 301 302 303 304
229 228 227 224 223 222 223 221 219 219 219 219 219 219 218 217 217 217 218 220 222 224 227 229 232 235 239 243 247 252 256 262 267 272 275 279 282 286 289 292 294 296 298 299 300 301 303 303 304
227 228 227 225 224 223 224 222 220 221 220 219 219 219 219 219 218 219 220 222 224 226 229 232 234 237 241 245 249 253 258 263 268 272 275 279 282 286 288 291 294 297 298 299 300 301 303 304 304
227 228 227 226 225 225 225 223 221 222 222 220 219 219 219 219 220 221 222 224 226 228 231 234 237 240 243 247 251 255 260 264 268 272 275 279 283 286 288 291 295 297 298 298 299 301 302 303 304
228 227 227 226 226 227 226 225 222 222 223 221 220 220 219 219 221 222 223 225 227 230 232 235 238 242 245 249 253 257 261 265 269 272 276 280 283 286 288 292 295 296 297 298 299 301 302 303 303
226 226 226 226 226 227 226 225 223 223 223 222 221 221 220 220 220 222 223 226 228 230 233 237 240 243 246 250 254 258 262 266 270 273 276 279 282 286 289 291 293 295 296 297 299 301 301 302 303
226 226 226 226 226 227 228 226 224 223 223 223 222 221 221 221 222 223 224 226 229 232 235 238 241 244 247 252 255 259 262 266 270 273 276 279 282 286 288 290 292 294 295 297 299 300 300 301 302
225 224 226 227 227 228 228 228 224 224 223 223 223 223 223 223 224 225 226 227 230 232 235 238 242 245 249 253 257 260 263 266 270 273 276 279 282 285 287 290 291 293 295 296 298 299 300 300 301
224 224 226 227 228 229 228 230 224 224 224 223 224 224 224 225 226 227 228 229 231 233 236 239 242 246 250 254 258 260 263 267 270 273 276 279 282 284 287 289 291 292 294 295 297 298 299 300 301
221 223 225 227 229 230 227 231 227 224 224 224 225 226 226 227 229 229 230 231 232 234 237 240 243 247 251 254 257 261 264 268 270 273 275 278 281 284 286 288 290 292 293 295 296 297 298 300 301
218 221 223 226 228 229 227 231 229 224 224 225 226 228 228 229 230 231 232 233 234 236 239 241 244 247 250 254 258 261 264 267 270 273 275 278 281 284 286 287 289 291 292 294 295 297 298 299 300
217 220 223 227 228 230 229 230 229 225 224 225 227 228 229 229 231 232 233 234 236 237 239 242 245 247 251 254 257 261 264 267 269 272 275 278 280 282 284 286 288 290 292 293 294 296 298 299 300
218 219 221 226 228 230 231 230 229 227 226 226 227 228 229 230 231 232 233 234 235 237 239 242 244 247 250 254 257 260 263 266 269 271 274 276 279 281 284 285 287 289 291 292 294 296 297 299 300
219 220 220 222 225 228 229 229 228 226 226 225 226 228 229 231 231 232 233 235 236 238 240 241 244 247 251 254 257 260 263 265 268 270 273 275 278 280 282 285 287 288 290 291 294 296 297 299 300
217 218 220 223 225 226 228 228 226 225 224 224 224 226 228 229 230 231 233 234 236 237 239 243 246 248 251 254 257 259 262 265 267 269 272 274 277 279 282 284 285 288 289 292 294 295 297 299 299
221 222 222 224 225 225 228 226 225 223 223 222 222 224 225 228 230 231 232 234 235 237 240 243 246 248 251 254 256 259 261 264 266 268 271 274 276 279 281 282 285 288 290 292 293 295 297 298 299
Height
5836 5836 5837 5838 5840 5841 5843 5846 5848 5850 5852 5855 5857 5860 5863 5865 5867 5870 5871 5871 5872 5874 5875 5876 5877 5878 5879 5880 5881 5881 5882 5882 5882 5882 5882 5882 5881 5881 5880 5879 5878 5877 5876 5875 5874 5872 5871 5870 5869
5832 5832 5833 5834 5835 5838 5841 5842 5844 5846 5848 5850 5853 5856 5858 5860 5862 5865 5866 5868 5869 5871 5872 5874 5875 5876 5877 5878 5879 5880 5880 5880 5880 5880 5880 5880 5879 5879 5878 5877 5876 5875 5874 5873 5871 5870 5869 5867 5866
5827 5828 5829 5830 5832 5835 5837 5838 5839 5841 5843 5846 5849 5851 5854 5856 5859 5861 5863 5865 5867 5868 5870 5872 5873 5874 5875 5876 5877 5878 5878 5878 5878 5878 5878 5878 5878 5877 5876 5875 5874 5873 5872 5870 5869 5868 5866 5865 5863
5822 5823 5824 5827 5829 5831 5832 5833 5834 5836 5839 5842 5844 5847 5850 5853 5855 5857 5860 5862 5864 5865 5867 5869 5870 5872 5873 5874 5875 5875 5876 5876 5876 5876 5876 5876 5875 5875 5874 5873 5872 5871 5869 5868 5866 5865 5863 5862 5860
5815 5817 5819 5822 5825 5826 5827 5829 5830 5832 5835 5837 5840 5843 5846 5848 5851 5853 5856 5858 5860 5862 5864 5866 5867 5869 5870 5871 5872 5873 5874 5874 5874 5874 5874 5874 5873 5872 5872 5871 5869 5868 5867 5865 5864 5862 5860 5858 5856
5809 5811 5814 5817 5820 5821 5823 5824 5826 5828 5830 5833 5835 5838 5841 5844 5847 5850 5852 5854 5857 5859 5861 5863 5864 5866 5867 5869 5870 5870 5871 5871 5872 5872 5872 5871 5871 5870 5869 5868 5867 5865 5864 5862 5860 5858 5856 5854 5852
5803 5805 5808 5812 5814 5816 5818 5819 5822 5824 5826 5828 5831 5834 5837 5840 5843 5846 5848 5851 5853 5856 5858 5860 5861 5863 5864 5866 5867 5868 5868 5869 5869 5869 5869 5868 5868 5867 5866 5865 5864 5862 5860 5859 5857 5855 5853 5850 5848
5794 5798 5801 5806 5809 5811 5813 5814 5817 5819 5821 5823 5826 5829 5833 5836 5839 5842 5844 5847 5850 5852 5854 5856 5858 5860 5861 5862 5864 5865 5865 5866 5866 5866 5866 5865 5865 5864 5863 5861 5860 5859 5857 5855 5853 5851 5849 5846 5844
5785 5790 5795 5800 5803 5806 5807 5809 5812 5814 5816 5819 5822 5825 5829 5832 5835 5838 5840 5843 5846 5849 5851 5853 5855 5856 5858 5859 5861 5862 5862 5863 5863 5863 5862 5862 5861 5860 5859 5858 5856 5855 5853 5851 5849 5846 5844 5842 5839
5776 5781 5790 5794 5796 5798 5801 5803 5806 5809 5812 5815 5818 5821 5824 5827 5830 5833 5836 5839 5842 5845 5847 5849 5851 5853 5855 5856 5857 5858 5859 5859 5860 5859 5859 5858 5858 5857 5855 5854 5852 5851 5849 5847 5844 5842 5839 5837 5834
5767 5774 5781 5784 5788 5790 5793 5797 5800 5803 5807 5811 5813 5816 5819 5822 5826 5829 5832 5835 5838 5840 5843 5845 5847 5849 5851 5853 5854 5855 5855 5856 5856 5856 5855 5855 5854 5853 5851 5850 5848 5846 5844 5842 5840 5837 5834 5832 5829
5758 5766 5771 5775 5778 5782 5786 5790 5794 5798 5802 5805 5807 5810 5814 5817 5821 5824 5827 5830 5833 5836 5839 5841 5843 5845 5847 5849 5850 5851 5852 5852 5852 5852 5851 5851 5850 5849 5847 5846 5844 5842 5839 5837 5835 5832 5829 5826 5823
5747 5755 5761 5766 5769 5774 5778 5782 5787 5791 5796 5798 5802 5805 5809 5812 5816 5819 5822 5825 5829 5832 5834 5837 5839 5841 5843 5844 5846 5847 5847 5848 5848 5848 5847 5846 5845 5844 5843 5841 5839 5837 5835 5832 5829 5826 5823 5820 5817
5737 5743 5749 5755 5760 5765 5770 5774 5779 5785 5789 5792 5796 5800 5803 5807 5810 5814 5817 5821 5824 5827 5829 5832 5834 5837 5838 5840 5841 5842 5843 5843 5843 5843 5843 5842 5841 5840 5838 5836 5834 5832 5829 5827 5824 5821 5818 5814 5811
5725 5731 5737 5744 5750 5756 5760 5766 5773 5779 5782 5786 5790 5794 5798 5801 5804 5808 5812 5815 5818 5821 5824 5827 5830 5832 5834 5835 5836 5837 5838 5838 5839 5838 5838 5837 5836 5834 5833 5831 5829 5826 5824 5821 5818 5815 5812 5808 5805
5712 5718 5726 5736 5741 5746 5751 5759 5767 5770 5774 5778 5783 5787 5791 5795 5799 5803 5806 5810 5813 5816 5819 5822 5824 5827 5828 5830 5831 5832 5833 5833 5833 5833 5832 5831 5830 5829 5827 5825 5823 5820 5818 5815 5812 5809 5806 5802 5799
5699 5707 5717 5726 5731 5737 5741 5750 5758 5761 5765 5771 5775 5780 5785 5789 5793 5797 5800 5804 5807 5810 5813 5816 5819 5821 5823 5825 5826 5827 5828 5828 5828 5828 5827 5826 5825 5823 5821 5819 5817 5814 5812 5809 5806 5803 5799 5796 5792
5692 5700 5708 5716 5722 5727 5732 5740 5748 5752 5756 5762 5767 5772 5777 5782 5787 5791 5794 5798 5801 5804 5807 5810 5813 5815 5817 5819 5821 5822 5822 5822 5822 5822 5821 5820 5819 5817 5815 5813 5811 5808 5805 5802 5799 5796 5793 5789 5786
5682 5688 5696 5705 5711 5716 5722 5729 5737 5742 5747 5753 5759 5765 5770 5775 5780 5783 5787 5791 5794 5798 5801 5804 5807 5809 5811 5813 5815 5815 5816 5816 5816 5815 5814 5813 5812 5810 5809 5807 5804 5801 5799 5796 5793 5790 5786 5783 5779
5668 5675 5684 5693 5699 5705 5711 5717 5725 5731 5737 5745 5751 5756 5762 5768 5772 5776 5780 5784 5788 5791 5795 5798 5801 5803 5805 5807 5808 5809 5809 5809 5809 5809 5808 5807 5805 5804 5802 5800 5797 5795 5792 5789 5786 5783 5779 5776 5772
5656 5665 5675 5682 5689 5693 5699 5705 5713 5721 5728 5735 5742 5748 5754 5759 5764 5769 5773 5777 5781 5785 5788 5791 5794 5796 5798 5799 5800 5801 5802 5802 5802 5802 5801 5799 5798 5796 5795 5792 5790 5788 5785 5782 5779 5776 5772 5769 5765
5646 5657 5664 5670 5676 5681 5688 5693 5704 5711 5717 5725 5734 5740 5746 5752 5757 5761 5766 5770 5774 5778 5781 5784 5786 5788 5790 5792 5793 5794 5795 5795 5795 5794 5793 5792 5791 5789 5787 5785 5783 5780 5778 5775 5772 5768 5765 5762 5758
5638 5647 5653 5659 5664 5670 5676 5681 5693 5701 5708 5718 5726 5732 5738 5743 5748 5753 5758 5762 5766 5770 5773 5776 5778 5781 5783 5784 5786 5787 5787 5787 5787 5786 5785 5784 5783 5782 5780 5778 5775 5773 5770 5767 5764 5761 5758 5754 5751
5627 5635 5642 5647 5651 5656 5666 5671 5680 5692 5702 5711 5717 5723 5729 5734 5740 5745 5749 5754 5758 5762 5765 5768 5771 5773 5775 5777 5778 5779 5779 5779 5779 5778 5777 5776 5775 5774 5772 5770 5768 5765 5763 5760 5757 5754 5750 5747 5743
5614 5623 5630 5634 5637 5645 5657 5659 5670 5686 5695 5702 5708 5714 5720 5725 5730 5735 5740 5745 5750 5754 5757 5760 5763 5765 5767 5769 5770 5771 5771 5771 5771 5770 5770 5769 5768 5766 5764 5762 5760 5758 5755 5752 5749 5746 5743 5739 5736
5604 5613 5621 5626 5632 5640 5645 5649 5664 5677 5685 5692 5698 5703 5709 5715 5721 5726 5731 5736 5741 5745 5749 5752 5755 5757 5759 5761 5762 5763 5763 5763 5763 5762 5762 5761 5760 5758 5757 5755 5753 5750 5748 5745 5742 5739 5735 5732 5728
5594 5601 5612 5618 5624 5629 5634 5644 5655 5665 5675 5682 5688 5694 5699 5705 5711 5717 5722 5727 5732 5736 5740 5743 5746 5749 5751 5752 5753 5754 5754 5755 5755 5754 5754 5753 5752 5750 5749 5747 5745 5743 5740 5737 5734 5731 5728 5724 5720
5586 5594 5601 5606 5612 5619 5626 5635 5646 5657 5666 5673 5679 5684 5690 5696 5701 5707 5712 5718 5723 5727 5731 5734 5737 5740 5742 5744 5745 5746 5746 5746 5746 5746 5746 5745 5744 5743 5741 5739 5737 5735 5733 5730 5727 5723 5720 5716 5712
5577 5583 5589 5597 5604 5612 5619 5631 5641 5650 5657 5664 5670 5675 5680 5686 5692 5698 5703 5708 5713 5717 5721 5725 5728 5731 5733 5735 5736 5737 5738 5738 5738 5738 5738 5737 5736 5735 5733 5732 5730 5727 5725 5722 5719 5715 5712 5708 5704
5568 5575 5582 5590 5596 5604 5612 5625 5633 5641 5648 5654 5660 5665 5671 5677 5683 5688 5694 5699 5703 5708 5712 5716 5719 5722 5724 5726 5728 5729 5730 5730 5730 5730 5730 5729 5728 5727 5726 5724 5722 5720 5717 5714 5711 5707 5704 5700 5696